Regional Weather Roundup
Issued by NWS

Home | Current Version | Previous Version | Text Only | Print | Product List | Glossary Off
Versions: 1 2 3 4 5 6 7 8 9 10 11 12 13 14 15 16 17 18 19 20 21 22 23 24 25 26 27 28 29 30 31 32 33 34 35 36 37 38 39 40 41 42 43 44 45 46 47 48 49 50

104
ASUS43 KLOT 240704
RWRIL

ILLINOIS REGIONAL WEATHER ROUNDUP
NATIONAL WEATHER SERVICE CHICAGO/ROMEOVILLE IL
200 AM CDT THU AUG 24 2017

NOTE: "FAIR" INDICATES FEW OR NO CLOUDS BELOW 12,000 FEET WITH NO
SIGNIFICANT WEATHER AND/OR OBSTRUCTIONS TO VISIBILITY.

* THESE STATIONS ARE NOT UNDER NWS QUALITY CONTROL. THEY ALSO MAY NOT
  REPORT WEATHER SUCH AS PRECIPITATION OR FOG.

ILZ001-002-007-009-015-016-024-240800-
NORTHWEST ILLINOIS

CITY           SKY/WX    TMP DP  RH WIND       PRES   REMARKS
MOLINE         CLEAR     56  53  90 CALM      30.06
SAVANNA*       PTCLDY    54  53  99 CALM      30.06S
$$

ILZ003-004-008-010-011-017-018-240800-
NORTH CENTRAL ILLINOIS

CITY           SKY/WX    TMP DP  RH WIND       PRES   REMARKS
ROCKFORD       CLEAR     56  53  90 CALM      30.06S
FREEPORT*      CLEAR     50  49  97 CALM      30.07S
ROCHELLE*      CLEAR     50  49  97 CALM      30.06S
DE KALB*       CLEAR     53  51  93 S6        30.06S
PERU*          PTCLDY    56  53  88 NW5       30.06S
$$

ILZ005-006-012>014-019>023-240800-
NORTHEAST ILLINOIS

CITY           SKY/WX    TMP DP  RH WIND       PRES   REMARKS
CHICAGO-OHARE  PTCLDY    63  55  75 SW3       30.03S
CHICAGO-MIDWAY MOCLDY    64  56  75 SW7       30.03S
AURORA         PTCLDY    54  53  97 CALM      30.05S
LANSING*       PTCLDY    55  55 100 CALM      30.04S
JOLIET*        CLEAR     58  57  99 CALM      30.05S
WAUKEGAN       CLEAR     59  56  89 W3        30.03S
DUPAGE AIRPORT CLEAR     56  55  97 CALM      30.04S
WHEELING       CLEAR     59  57  93 CALM      30.05S
MORRIS*        CLEAR     55  53  94 CALM      30.04S
ROMEOVILLE*    CLEAR     58  56  93 CALM      30.04F
NORTHERLY ISL    N/A     65  54  67 SW5         N/A
$$

LMZ740>746-240800-
SOUTHERN LAKE MICHIGAN

STATION/POSITION SKY/WX   TEMP    WIND        PRES    VSBY  WAVE
                          AIR SEA DIR/SP/G                  HT/PER
                          (F)     (DEG/KT/KT) (MB)    (MI)  (FT/S)
SOUTHERN BUOY              67 71  150/  2/  4 1017.1          1/ 4
WILMETTE HARBOR            67 73  220/  8/ 10   N/A           1/ 6
HARRISON CRIB              68     210/  9/  9   N/A
CALUMET HARBOR             64     220/  2/  4 1016.5F
BURNS HARBOR               63     180/  3/  3 1017.6S
MICHIGAN CITY              61     140/  5/  6   N/A
MICHIGAN CITY 6N           66 73  160/  6/  8   N/A           2/ 5
ST. JOSEPH                 66 74  160/  4/  6 1017.1S         2/ 5
$$

ILZ025>027-034>036-040-047-049-050-058-095>099-240800-
WEST-CENTRAL ILLINOIS

CITY           SKY/WX    TMP DP  RH WIND       PRES   REMARKS
QUINCY         CLEAR     60  54  80 CALM      30.07S
GALESBURG*     CLEAR     52  52 100 CALM      30.07F
MACOMB*        CLEAR     55  54  98 CALM      30.08F
JACKSONVILLE*  CLEAR     55  53  95 CALM      30.07S
PITTSFIELD*    CLEAR     56  55  96 CALM      30.08S
$$

ILZ028>032-037-038-041>044-048-051>054-059>061-240800-
CENTRAL ILLINOIS

CITY           SKY/WX    TMP DP  RH WIND       PRES   REMARKS
PONTIAC        CLEAR     53  53  98 CALM      30.06S
DECATUR        CLEAR     57  54  89 CALM      30.06S
PEORIA         CLEAR     58  56  93 NW3       30.06S
LACON*         CLEAR     55  55  99 CALM      30.05S
LINCOLN*       CLEAR     57  57  99 CALM      30.06S
SPRINGFIELD    CLEAR     56  55  97 CALM      30.07R
TAYLORVILLE    CLEAR     55  55  99 CALM      30.06S
$$

ILZ033-039-045-046-055>057-062-063-240800-
EAST-CENTRAL ILLINOIS

CITY           SKY/WX    TMP DP  RH WIND       PRES   REMARKS
CHAMPAIGN      CLEAR     55  52  89 W6        30.06R
RANTOUL*       PTCLDY    59  56  91 CALM      30.06R
MATTOON        CLEAR     59  55  87 NW3       30.04F
PARIS*         CLEAR     50  49  98 W3        30.05F
$$

ILZ079-100>102-240800-
SOUTHWEST ILLINOIS

CITY           SKY/WX    TMP DP  RH WIND       PRES   REMARKS
ALTON          PTCLDY    56  56 100 CALM      30.06S
BELLEVILLE     PTCLDY    60  56  87 CALM      30.06F
CAHOKIA*       CLEAR     58  54  86 CALM      30.06S
SPARTA*        CLEAR     59  58  96 CALM      30.06F
$$

ILZ064>066-069>071-074>076-080>082-084>086-088>090-092>094-240800-
SOUTH-CENTRAL ILLINOIS

CITY           SKY/WX    TMP DP  RH WIND       PRES   REMARKS
CARBONDALE     CLEAR     56  56 100 CALM      30.05S
CAIRO*         CLEAR     57  55  94 CALM      30.04S
EFFINGHAM*     CLEAR     56  56 100 CALM      30.06F
MARION         CLEAR     59  59 100 CALM      30.05F
MT. VERNON       N/A     55  55 100 CALM      30.05S FOG
CENTRALIA*     PTCLDY    56  56  99 CALM      30.05S
SALEM*         CLEAR     55  53  91 CALM      30.06R
METROPOLIS*    CLEAR     57  56  95 CALM      30.04S
$$

ILZ067-068-072-073-078-083-087-091-240800-
SOUTHEAST ILLINOIS

CITY           SKY/WX    TMP DP  RH WIND       PRES   REMARKS
LAWRENCEVILLE  CLEAR     57  55  93 NW3       30.04S
FLORA*         CLEAR     57  56  95 CALM      30.05S
FAIRFIELD*     PTCLDY    57  56  99 CALM      30.04S
HARRISBURG*    CLEAR     58  56  94 CALM      30.04F
ROBINSON*      CLEAR     52  52 100 CALM      30.06S
CARMI*         CLEAR     56  56 100 CALM      30.04R
$$

ABBREVIATIONS USED IN REMARKS
   TC - TEMPERATURE IN CELSIUS
  WCI - WIND CHILL INDEX
   HX - HEAT INDEX
  VSB - VISIBILITY
$$





USA.gov is the U.S. government's official web portal to all federal, state and local government web resources and services.